Weather History for Macomb, IL

Change the Weather History Date:

Sunday, June 16, 2013

  Actual Average (KBRL) Record (KBRL)
Temperature  
Mean Temperature 76 °F 74 °F  
Max Temperature 84 °F 84 °F 102 °F (1918)
Min Temperature 68 °F 63 °F 45 °F (1961)
Degree Days  
Heating Degree Days 0 0  
Month to date heating degree days 9  
Since 1 June heating degree days 9  
Since 1 July heating degree days 5596  
Cooling Degree Days 11 9  
Month to date cooling degree days 113  
Year to date cooling degree days 216  
Since 1 June cooling degree days 113  
Growing Degree Days 26 (Base 50)    
Moisture  
Dew Point 68 °F    
Average Humidity 79    
Maximum Humidity 95    
Minimum Humidity 61    
Precipitation  
Precipitation 0.00 in 0.15 in 1.53 in (2012)
Month to date precipitation 2.43  
Year to date precipitation 16.69  
Sea Level Pressure  
Sea Level Pressure 29.97 in    
Wind  
Wind Speed 7 mph (West)    
Max Wind Speed 12 mph    
Max Gust Speed -    
Visibility 10 miles    
Events Rain    
T = Trace of Precipitation, MM = Missing Value Source: NWS Daily Summary

Daily Weather History Graph

Daily Weather History Graph

Search for Another Location

Airport:

Trip Planner

Search our weather history database for the weather conditions in past years. The results will help you decide how hot, cold, wet, or windy it might be!

Date:

Astronomy

Jun. 16, 2013 Rise Set
Actual Time 5:31 AM CDT 8:35 PM CDT
Civil Twilight 4:58 AM CDT 9:08 PM CDT
Nautical Twilight 4:15 AM CDT 9:50 PM CDT
Astronomical Twilight 3:26 AM CDT 10:40 PM CDT
Moon 1:09 PM CDT (6/16) 12:38 AM CDT (6/16)
Length of Visible Light 16h 10m
Length of Day
15h 03m
Waxing Crescent, 50% of the Moon is Illuminated
Jun 16
Waxing Crescent
Jun 16
First Quarter
Jun 23
Full
Jun 29
Last Quarter
Jul 8
New

Hourly Weather History & Observations

Time (CDT) Temp. Heat Index Dew Point Humidity Pressure Visibility Wind Dir Wind Speed Gust Speed Precip Events Conditions
12:15 AM 69.6 °F - 68.2 °F 95% 29.96 in 10.0 mi SSW 5.8 mph - N/A   Mostly Cloudy
12:35 AM 69.8 °F - 64.6 °F 83% 29.95 in 10.0 mi SSW 10.4 mph - N/A Rain Light Rain
12:55 AM 70.0 °F - 63.7 °F 80% 29.95 in 10.0 mi SW 8.1 mph - N/A Rain Light Rain
1:15 AM 69.8 °F - 63.7 °F 81% 29.95 in 10.0 mi SW 10.4 mph - N/A Rain Light Rain
1:35 AM 68.9 °F - 64.4 °F 86% 29.96 in 10.0 mi West 5.8 mph - N/A   Scattered Clouds
1:55 AM 68.5 °F - 64.4 °F 87% 29.96 in 10.0 mi NW 6.9 mph - N/A   Clear
2:15 AM 69.1 °F - 64.0 °F 84% 29.96 in 10.0 mi WSW 5.8 mph - N/A   Clear
2:35 AM 69.4 °F - 64.6 °F 84% 29.95 in 10.0 mi SW 9.2 mph - N/A   Clear
2:55 AM 69.6 °F - 64.9 °F 85% 29.95 in 10.0 mi SW 8.1 mph - N/A   Clear
3:15 AM 69.4 °F - 65.5 °F 87% 29.95 in 10.0 mi SW 9.2 mph - N/A   Clear
3:35 AM 69.3 °F - 65.8 °F 89% 29.95 in 10.0 mi SW 9.2 mph - N/A   Clear
3:55 AM 69.1 °F - 66.2 °F 91% 29.96 in 10.0 mi SW 9.2 mph - N/A   Clear
4:15 AM 68.9 °F - 66.2 °F 91% 29.96 in 10.0 mi SW 8.1 mph - N/A   Clear
4:35 AM 68.7 °F - 66.2 °F 92% 29.97 in 10.0 mi SW 8.1 mph - N/A   Mostly Cloudy
4:55 AM 68.5 °F - 66.4 °F 93% 29.97 in 10.0 mi SW 6.9 mph - N/A   Overcast
5:15 AM 68.9 °F - 66.6 °F 92% 29.97 in 10.0 mi SW 6.9 mph - N/A   Overcast
5:35 AM 68.9 °F - 66.6 °F 92% 29.98 in 10.0 mi WSW 6.9 mph - N/A   Overcast
5:55 AM 68.9 °F - 66.7 °F 93% 29.99 in 10.0 mi SW 8.1 mph - N/A   Overcast
6:15 AM 69.1 °F - 67.1 °F 93% 29.99 in 10.0 mi SW 6.9 mph - N/A   Overcast
6:35 AM 69.4 °F - 67.1 °F 92% 29.98 in 10.0 mi WSW 5.8 mph - N/A   Scattered Clouds
6:55 AM 69.6 °F - 67.1 °F 92% 29.98 in 10.0 mi WSW 8.1 mph - N/A   Clear
7:15 AM 70.7 °F - 67.6 °F 90% 29.99 in 10.0 mi WSW 6.9 mph - N/A   Clear
7:35 AM 71.6 °F - 67.8 °F 88% 29.99 in 10.0 mi WSW 10.4 mph - N/A   Clear
7:55 AM 72.1 °F - 68.2 °F 87% 29.99 in 10.0 mi WSW 10.4 mph - N/A   Clear
8:15 AM 72.5 °F - 68.4 °F 87% 30.00 in 10.0 mi WSW 10.4 mph - N/A   Clear
8:35 AM 73.6 °F - 68.5 °F 84% 30.00 in 10.0 mi WSW 11.5 mph - N/A   Clear
8:55 AM 74.7 °F - 69.1 °F 83% 30.00 in 10.0 mi West 9.2 mph - N/A   Clear
9:15 AM 75.2 °F - 69.1 °F 81% 30.00 in 10.0 mi WSW 10.4 mph - N/A   Scattered Clouds
9:35 AM 75.2 °F - 68.9 °F 81% 30.00 in 10.0 mi WSW 10.4 mph - N/A   Mostly Cloudy
9:55 AM 75.7 °F - 69.1 °F 80% 30.00 in 10.0 mi West 9.2 mph - N/A   Overcast
10:15 AM 76.1 °F - 68.9 °F 78% 29.99 in 10.0 mi WNW 8.1 mph - N/A   Overcast
10:35 AM 77.0 °F - 68.5 °F 75% 29.99 in 10.0 mi WNW 5.8 mph - N/A   Overcast
10:55 AM 76.6 °F - 68.4 °F 75% 29.99 in 10.0 mi WNW 9.2 mph - N/A   Overcast
11:15 AM 77.0 °F - 68.4 °F 75% 29.99 in 10.0 mi NW 5.8 mph - N/A   Overcast
11:35 AM 77.7 °F - 68.5 °F 73% 29.99 in 10.0 mi NNW 4.6 mph - N/A   Overcast
11:55 AM 78.6 °F - 68.4 °F 71% 29.99 in 10.0 mi West 5.8 mph - N/A   Overcast
12:15 PM 79.2 °F - 68.7 °F 70% 29.98 in 10.0 mi NW 3.5 mph - N/A   Overcast
12:35 PM 79.9 °F - 68.2 °F 67% 29.98 in 10.0 mi Calm Calm - N/A   Mostly Cloudy
12:55 PM 79.9 °F - 68.9 °F 69% 29.99 in 10.0 mi WSW 4.6 mph - N/A   Mostly Cloudy
1:15 PM 79.7 °F - 68.7 °F 69% 29.99 in 10.0 mi West 3.5 mph - N/A   Overcast
1:35 PM 80.4 °F 83.5 °F 69.3 °F 69% 29.99 in 10.0 mi West 4.6 mph - N/A   Overcast
1:55 PM 80.6 °F 83.6 °F 69.1 °F 68% 29.98 in 10.0 mi Calm Calm - N/A   Overcast
2:15 PM 81.7 °F 84.5 °F 68.2 °F 63% 29.98 in 10.0 mi WNW 3.5 mph - N/A   Mostly Cloudy
2:35 PM 82.0 °F 85.5 °F 69.3 °F 65% 29.98 in 10.0 mi SW 3.5 mph - N/A   Mostly Cloudy
2:55 PM 82.6 °F 86.1 °F 69.4 °F 64% 29.98 in 10.0 mi WNW 4.6 mph - N/A   Mostly Cloudy
3:15 PM 82.2 °F 85.5 °F 68.7 °F 64% 29.98 in 10.0 mi West 4.6 mph - N/A   Scattered Clouds
3:35 PM 83.3 °F 86.9 °F 69.3 °F 62% 29.98 in 10.0 mi West 5.8 mph - N/A   Mostly Cloudy
3:55 PM 83.5 °F 87.2 °F 69.3 °F 62% 29.97 in 10.0 mi WNW 4.6 mph - N/A   Overcast
4:15 PM 83.5 °F 87.7 °F 70.0 °F 64% 29.97 in 10.0 mi WNW 5.8 mph - N/A   Mostly Cloudy
4:35 PM 83.7 °F 88.3 °F 70.7 °F 65% 29.97 in 10.0 mi WSW 8.1 mph - N/A   Mostly Cloudy
4:55 PM 83.3 °F 87.4 °F 70.2 °F 64% 29.97 in 10.0 mi West 5.8 mph - N/A   Mostly Cloudy
5:15 PM 84.2 °F 88.1 °F 69.4 °F 61% 29.97 in 10.0 mi West 6.9 mph - N/A   Mostly Cloudy
5:35 PM 83.3 °F 87.4 °F 69.8 °F 64% 29.96 in 10.0 mi West 5.8 mph - N/A   Scattered Clouds
5:55 PM 84.0 °F 87.8 °F 69.4 °F 61% 29.96 in 10.0 mi NW 9.2 mph - N/A   Scattered Clouds
6:15 PM 82.6 °F 86.1 °F 69.4 °F 64% 29.96 in 10.0 mi NW 8.1 mph - N/A   Scattered Clouds
6:35 PM 83.3 °F 86.9 °F 69.1 °F 62% 29.96 in 10.0 mi West 5.8 mph - N/A   Clear
6:55 PM 82.9 °F 86.7 °F 69.6 °F 64% 29.95 in 10.0 mi WNW 4.6 mph - N/A   Clear
7:15 PM 82.6 °F 86.4 °F 69.8 °F 65% 29.95 in 10.0 mi West 4.6 mph - N/A   Clear
7:35 PM 82.0 °F 85.7 °F 69.6 °F 66% 29.95 in 10.0 mi WNW 3.5 mph - N/A   Clear
7:55 PM 81.0 °F 84.4 °F 70.0 °F 69% 29.95 in 10.0 mi WNW 4.6 mph - N/A   Clear
8:15 PM 79.2 °F - 70.5 °F 75% 29.95 in 10.0 mi WNW 4.6 mph - N/A   Clear
8:35 PM 77.7 °F - 70.3 °F 78% 29.95 in 10.0 mi NW 4.6 mph - N/A   Clear
8:55 PM 76.6 °F - 69.8 °F 79% 29.94 in 10.0 mi NW 4.6 mph - N/A   Clear
9:15 PM 75.4 °F - 69.4 °F 82% 29.95 in 10.0 mi NNW 4.6 mph - N/A   Clear
9:35 PM 73.6 °F - 69.6 °F 87% 29.97 in 10.0 mi Calm Calm - N/A   Clear
9:55 PM 73.2 °F - 69.8 °F 89% 29.98 in 10.0 mi WNW 3.5 mph - N/A   Clear
10:15 PM 72.1 °F - 69.4 °F 91% 29.98 in 10.0 mi Calm Calm - N/A   Clear
10:35 PM 72.0 °F - 69.4 °F 92% 29.98 in 10.0 mi Calm Calm - N/A   Clear
10:55 PM 71.6 °F - 69.3 °F 92% 29.98 in 10.0 mi Calm Calm - N/A   Clear
11:15 PM 71.1 °F - 69.1 °F 93% 29.99 in 10.0 mi Calm Calm - N/A   Clear
11:35 PM 70.3 °F - 68.2 °F 93% 29.99 in 10.0 mi WSW 4.6 mph - N/A   Clear
11:55 PM 69.8 °F - 68.0 °F 94% 29.99 in 10.0 mi SW 3.5 mph - N/A   Clear